Location: Aldenham
(51.6667°N, 0.3500°W)
Time: 16:00:47
(UTC+00:00)

Aureole 3 Rocket - Pass Details

Date: 18 November 2025
Orbit: 398 x 1690 km, 82.5° (Epoch: 12 December)

Event Time Altitude Azimuth Distance (km) Brightness Sun altitude
Rises 16:56:51 0° 150° (SSE) 2,304 5.9 -7.7°
Reaches altitude 10° 16:59:14 10° 129° (SE) 1,456 4.7 -8.1°
Maximum altitude 17:01:18 17° 86° (E) 1,149 3.9 -8.4°
Drops below altitude 10° 17:03:30 10° 43° (NE) 1,570 4.6 -8.7°
Enters shadow 17:03:47 - 40° (NE) 1,660 4.7 -8.7°
